map of UST home
UST - Airport
Location
City:  St. Augustine, Florida, United States
Name:Northeast Florida Regional
ICAO:KSGJ
IATA:UST
FAA LID:SGJ

Details
Type:Airport (Part 139 Class I)
Use:Public/Civil
Latitude:2957'33"N (29.959250)
Longitude:8120'23"W (-81.339721)
Datum:WGS 1984
Elevation:9 ft (3 m)
Variation:6.61W (WMM2015 magnetic declination)
-0.09 annual change
Runways:3
Longest:8002 × 150 ft (2439 × 45.5 m), paved

Time
Time Zone:UTC-5 (DST-4)
Local Time:

Weather
METAR:KSGJ 171256Z 36004KT 10SM CLR 12/11 A3028 RMK AO2 SLP252 T01170106
TAF:KSGJ 171120Z 1712/1812 VRB03KT P6SM SCT250
FM171500 13006KT P6SM SCT060 BKN150
FM180500 VRB02KT 5SM BR FEW020 BKN100
FM180700 00000KT 4SM BR FEW010 SCT100

Related Locations
Nearby:
Farthest:USL: 11508 mi / 18521 km
Useless Loop, WA, AU

Find:

   beyond  
but within

Other Information
Maps:
NOTAMs:
Links:
Sources:

  
flag of United States
flag of Florida
  

Airport Diagram

Airport diagram for UST

Airport diagram PDF

Sectional Chart

Flight Planning
at skyvector.com

Satellite Image

Google Maps Satellite view

 

Copyright © 2004-2017 Karl L. Swartz. All rights reserved.
The Great Circle Mapper name and logo are trademarks of the Great Circle Mapper.
All other trademarks mentioned herein belong to their respective owners.
Please see credits for attibutions and further copyright information.

  Follow gcmap on Facebook Follow gcmap on Twitter Follow gcmap on Google+ GCmap on LinkedIn

hCard Microformat

Geo Microformat